Location: *
(44.5958°S, 145.9908°W)
Time: 04:20:16
(UTC+00:00)

Daily predictions for brighter satellites

Satellite Brightness Start Highest point End
(mag) Time Altitude Azimuth Time Altitude Azimuth Time Altitude Azimuth
Okean O Rocket 3.7 04:53:06 10° S 04:57:14 35° WSW 05:01:18 10° NW
Cosmos 2322 3.9 04:52:55 10° SSW 04:58:38 64° ESE 05:04:17 10° NE
ARGOS 4.3 04:55:04 10° SE 04:59:22 23° E 05:03:38 10° NE
Cosmos 1763 Rocket 3.6 04:54:05 10° SSW 04:59:31 87° ESE 05:04:53 10° NNE
Cosmos 2297 Rocket 3.9 04:58:59 10° ENE 05:00:31 11° E 05:02:04 10° E
YAOGAN 1 2.9 04:56:57 10° SSE 05:01:12 45° E 05:05:23 10° N
In-Cosmos 22 Rocket 4.4 04:57:20 10° N 05:02:59 62° E 05:08:48 10° SSE
Cosmos 2058 3.4 05:01:15 10° NNE 05:05:11 40° E 05:09:12 10° SSE
Cosmos 972 4.5 05:03:02 10° SSW 05:08:28 82° ESE 05:13:26 10° NNE
Cosmos 1375 Rocket 4.5 05:05:16 10° NNW 05:11:30 71° ENE 05:17:50 10° SE
HJ-1C 4.0 05:11:39 10° SSE 05:14:49 35° E 05:17:56 10° NNE
H-2A R/B 2.4 05:10:41 10° SSE 05:15:32 42° E 05:20:27 10° N
Cosmos 1892 2.7 05:12:07 10° N 05:15:59 76° E 05:19:54 10° SSE
CSL-04 Rocket 4.1 05:11:23 10° SSE 05:16:37 41° E 05:21:49 10° NNE
OE (NEXTSAT) 4.4 05:13:22 10° W 05:16:53 81° SSW 05:20:25 10° ESE
Cosmos 405 3.4 05:14:26 10° S 05:17:54 46° ESE 05:21:15 10° NNE
Nadezhda 1 Rocket 4.0 05:11:48 10° S 05:18:01 70° E 05:24:06 10° NNE
Cosmos 2333 4.3 05:13:43 10° SSW 05:19:34 87° WNW 05:25:23 10° NNE
Cosmos 1570 Rocket 4.1 05:15:13 10° SSW 05:20:34 64° ESE 05:25:54 10° NNE
Cosmos 2221 2.5 05:16:43 10° S 05:21:07 79° E 05:25:29 10° NNE
X-37B 2.4 05:20:04 10° N 05:21:58 15° NE 05:22:22 15° NE
Cosmos 540 Rocket 3.5 05:17:01 10° SSW 05:22:15 72° ESE 05:27:27 10° NNE
Cosmos 1842 Rocket 3.7 05:18:39 10° S 05:23:15 88° W 05:27:46 10° N
COSMOS 2428 2.9 05:17:40 10° SSW 05:23:23 63° ESE 05:28:39 12° NE
Cosmos 2333 Rocket 2.3 05:19:02 10° SSW 05:24:53 82° ESE 05:30:41 10° NNE
Cosmos 841 Rocket 3.5 05:19:46 10° SSW 05:25:03 75° ESE 05:30:19 10° NNE
Cosmos 1408 2.6 05:21:43 10° N 05:25:26 65° E 05:29:11 10° SSE
Cosmos 2208 Rocket 4.2 05:22:03 10° SSW 05:27:24 61° ESE 05:32:03 13° NE
Lacrosse 5 rocket 4.0 05:24:34 10° SW 05:27:25 16° S 05:30:11 10° SE
USA 229 DEB 3.9 05:20:56 10° NNW 05:28:32 63° ENE 05:35:48 10° SE
USA 229 3.9 05:21:02 10° NNW 05:28:37 63° ENE 05:35:53 10° SE
Cosmos 2219 4.3 05:25:15 10° NNE 05:29:33 22° E 05:33:50 10° SE
Okean-O 2.9 05:25:22 10° S 05:29:53 76° WSW 05:34:21 10° NNW
Cosmos 1346 Rocket 2.8 05:26:54 10° N 05:30:52 61° E 05:34:53 10° SSE
Cosmos 2084 Rocket 3.4 05:27:17 10° SW 05:31:38 83° SE 05:34:51 17° NE
Helios 1A Rocket 3.6 05:28:53 10° S 05:33:03 60° WSW 05:37:10 10° NNW
Cosmos 2237 Rocket 3.2 05:29:06 10° S 05:34:17 33° SE 05:38:04 16° ENE
ATLAS CENTAUR R/B 4.3 05:30:33 10° W 05:34:19 24° SW 05:38:13 10° SSE
USA 267 3.3 05:29:26 10° SE 05:36:06 84° NE 05:42:43 10° NW
USA 281 3.6 05:31:16 10° SSE 05:37:53 72° WSW 05:44:27 10° NW
Cosmos 1825 2.2 05:34:52 10° N 05:38:36 58° E 05:42:23 10° SSE
Cosmos 1745 Rocket 4.2 05:33:30 10° N 05:39:54 84° W 05:46:21 10° S
Cosmos 1076 Rocket 3.5 05:36:26 10° N 05:40:47 74° E 05:45:13 10° SSE
Cosmos 2360 Rocket 3.9 05:37:02 10° SW 05:42:03 32° WNW 05:47:01 10° NNW
SJ-6B 4.0 05:40:08 10° SE 05:43:14 22° E 05:43:53 21° ENE
NOSS 3-1 (A) 4.2 05:34:44 10° NNW 05:43:27 65° ENE 05:51:11 10° SE
Cosmos 1980 4.4 05:39:49 10° SSW 05:45:13 41° ESE 05:48:43 20° ENE
ISS -1.9 05:47:15 10° SW 05:50:17 27° S 05:52:49 13° ESE
CZ-4 R/B 2.9 05:47:19 10° S 05:51:22 42° WSW 05:55:17 10° NW
Cosmos 1340 4.5 05:48:07 10° NW 05:51:38 35° WSW 05:55:12 10° S
H-2A R/B 3.4 05:49:19 17° NNE 05:52:29 83° ESE 05:56:42 10° SSW
Cosmos 1633 4.4 05:53:43 16° ESE 05:53:43 16° ESE 05:55:27 10° SE
CSL-04 Debris 4.2 05:51:17 10° SSE 05:56:47 88° WSW 06:02:13 10° NNW
Cosmos 1766 Rocket 4.4 05:58:57 27° ENE 06:00:05 31° E 06:04:02 10° SSE
SL-16 R/B 3.8 05:55:42 10° S 06:00:07 22° SE 06:03:03 15° E
NOSS 3-1 (C) 4.3 05:53:08 10° NW 06:01:57 76° SW 06:09:38 10° SE
Cosmos 2227 Rocket 2.9 06:01:34 23° NE 06:03:54 32° ENE 06:08:54 10° SE
Orbus 7S? 4.4 06:04:29 10° WSW 06:07:33 40° NW 06:10:31 21° NNE
Cosmos 724 4.4 06:02:51 10° SW 06:08:43 72° WNW 06:12:20 24° NNE
Cosmos 2219 Rocket 2.9 06:03:36 10° SW 06:09:07 52° WNW 06:13:43 15° N
Cosmos 1709 Rocket 4.0 06:03:25 10° N 06:09:46 87° W 06:16:07 10° S
USA 234 3.3 06:06:09 24° ENE 06:10:29 78° SE 06:17:07 10° SW
Cosmos 1441 Rocket 4.3 06:16:24 28° ESE 06:16:24 28° ESE 06:19:12 10° SSE
Cosmos 1151 Rocket 3.7 06:11:53 10° S 06:16:03 39° ESE 06:16:56 35° ENE
Cosmos 1606 2.6 06:12:48 10° S 06:16:41 75° E 06:17:48 43° NNE
USA 186 1.8 06:15:36 10° S 06:18:57 80° WSW 06:20:16 34° NNW
NOSS 0 Rocket 4.0 06:14:11 10° SSW 06:20:27 83° WNW 06:23:58 28° NNE
Cosmos 2074 Rocket 4.3 06:20:11 29° NE 06:23:03 48° E 06:29:06 10° SSE
FREGAT/IRIS 3.6 06:23:45 10° SSE 06:25:23 32° SSE 06:25:23 32° SSE
Cosmos 1328 Rocket 3.9 06:25:42 10° S 06:30:07 49° ESE 06:30:49 45° ENE
Cosmos 2151 3.3 06:27:54 18° NNW 06:30:59 67° W 06:35:19 10° S
Meteor 2-17 Rocket 4.4 06:27:29 25° N 06:31:14 69° E 06:37:25 10° SSE
Resurs 01 Rocket 2.9 06:27:29 10° SE 06:30:29 25° ESE 06:30:29 25° ESE
Cosmos 2181 Rocket 4.0 06:25:49 10° S 06:32:04 84° W 06:35:51 26° N
Meteor 1-4 Rocket 4.5 06:29:30 10° SSE 06:31:29 19° SE 06:31:29 19° SE
Cosmos 1933 3.3 06:28:26 10° S 06:32:37 68° E 06:33:14 57° NE
Cosmos 389 Rocket 2.4 06:30:41 10° S 06:34:21 82° E 06:34:36 75° NE
Cosmos 1408 Rocket 4.0 06:38:28 43° E 06:38:28 43° E 06:42:31 10° SSE
OBJECT-B 1.2 06:35:10 10° SSE 06:37:52 53° SE 06:37:52 53° SE
ARGOS 4.0 06:34:38 10° S 06:39:54 51° WSW 06:45:07 10° NW
Cosmos 836 Rocket 4.4 06:34:55 10° SSW 06:40:13 79° ESE 06:41:44 47° NNE
Timation 2 Rocket 4.2 06:33:45 10° NNW 06:40:38 85° WSW 06:47:22 10° SSE
Cosmos 2297 Rocket 2.1 06:38:33 14° NNW 06:43:34 79° ENE 06:49:17 10° SSE
Cosmos 1932 4.4 06:37:26 10° SW 06:43:48 89° SE 06:46:12 42° NE
SL-8 R/B 4.4 06:41:52 10° NW 06:45:06 37° NNW 06:45:06 37° NNW
Cosmos 968 Rocket 3.6 06:46:54 14° NNW 06:51:20 74° WSW 06:56:32 10° SSE
Cosmos 1782 3.3 06:47:46 10° S 06:51:28 49° ESE 06:51:28 49° ESE
H-2A R/B 4.1 06:50:32 10° S 06:54:46 27° WSW 06:59:03 10° WNW
Ariane Rocket 3.3 06:53:07 10° S 06:58:15 68° WSW 07:01:12 25° NNW
Cosmos 2154 Rocket 4.0 07:01:43 49° NE 07:03:13 63° E 07:09:34 10° SSE
Cosmos 1515 Rocket 3.6 06:59:52 10° S 07:04:13 66° ESE 07:04:13 66° ESE
Meteor 2-3 Rocket 3.9 07:04:24 31° NNW 07:07:19 74° WSW 07:13:12 10° S
Nadezhda 3 Rocket 4.0 07:01:28 10° S 07:07:41 66° E 07:08:53 54° NE
Lacrosse 5 rocket 3.4 07:04:32 10° SSW 07:07:58 22° SSE 07:09:23 19° SE
Cosmos 773 Rocket 4.4 07:06:18 10° S 07:11:21 48° ESE 07:11:36 48° ESE
Cosmos 2219 3.7 07:07:35 10° NW 07:13:13 59° WSW 07:18:53 10° SSE
Resurs 1-3 3.9 07:13:17 10° S 07:17:44 66° WSW 07:18:11 61° WNW
Cosmos 2237 Rocket 3.0 07:13:04 10° SW 07:18:28 43° WNW 07:19:55 36° NW
USA 267 4.4 07:12:38 10° SE 07:18:46 42° SSW 07:24:53 10° W
MetOp-B 4.5 07:13:50 10° SSE 07:18:36 49° E 07:18:36 49° E
Cosmos 1503 Rocket 4.2 07:17:28 39° NW 07:19:30 72° WSW 07:24:58 10° SSE
SeaSat 1 2.8 07:16:20 10° SSE 07:20:22 52° ESE 07:20:22 52° ESE
Cosmos 2082 3.5 07:21:57 72° NE 07:22:17 75° ENE 07:27:59 10° SSE
USA 81 4.2 07:23:26 60° ESE 07:23:26 60° ESE 07:28:28 10° SSE
Meteor 1-10 Rocket 4.4 07:20:27 10° S 07:26:15 58° ESE 07:26:35 57° E
Cosmos 2228 Rocket 3.8 07:22:19 10° S 07:25:53 47° SE 07:25:53 47° SE
ISS -1.7 07:24:00 10° WSW 07:25:45 28° SW 07:25:45 28° SW
Cosmos 1633 4.2 07:27:47 32° WSW 07:27:47 32° WSW 07:30:59 10° S
Cosmos 1354 Rocket 4.3 07:29:12 45° NW 07:30:44 66° WSW 07:36:08 10° SSE
Landsat 7 4.5 07:26:10 10° SSE 07:29:48 45° SE 07:29:48 45° SE
Cosmos 1867 3.4 07:25:45 10° SSW 07:31:13 82° SE 07:31:18 82° ESE
Cosmos 1500 Rocket 4.2 07:36:43 54° S 07:36:43 54° S 07:40:15 10° S
CENTAUR R/B 4.1 07:33:05 10° SSW 07:37:51 23° SSE 07:40:25 17° ESE
SL-16 R/B 2.2 07:39:05 10° SSW 07:44:50 73° WNW 07:44:56 72° WNW
ERS-1 Rocket 4.3 07:42:10 10° SSE 07:45:08 29° ESE 07:45:08 29° ESE
Cosmos 1743 Rocket 4.2 07:47:54 55° SSW 07:47:54 55° SSW 07:51:39 10° S
Cosmos 2227 Rocket 3.3 07:43:13 14° NW 07:47:48 42° WSW 07:53:15 10° SSE
Thor Agena Rocket 3.6 07:50:15 71° S 07:50:15 71° S 07:54:54 10° SSW
USA 234 4.1 07:53:29 33° NW 07:53:51 33° NW 07:59:43 10° WSW
Cosmos 2263 Rocket 3.6 07:57:04 27° ESE 07:57:04 27° ESE 08:00:01 10° SE
Meteor 1-27 Rocket 4.0 07:49:15 10° S 07:55:04 62° ESE 07:55:04 62° ESE
Cosmos 1812 4.4 07:52:52 10° S 07:55:07 33° SSW 07:55:07 33° SSW
Cosmos 962 Rocket 4.4 07:56:50 78° NNW 07:57:17 85° W 08:03:37 10° S
Cosmos 1538 Rocket 4.3 08:01:13 10° SSW 08:05:38 64° SSW 08:05:38 64° SSW
Resurs 01 Rocket 3.1 08:03:47 10° S 08:07:50 32° WSW 08:08:03 32° WSW
USA 238 DEB 4.2 08:06:15 10° SSW 08:13:03 50° SE 08:14:20 45° ESE
USA 238 4.2 08:06:21 10° SSW 08:13:09 50° SE 08:14:26 44° ESE
Cosmos 2341 Rocket 4.0 08:13:43 70° WNW 08:14:07 73° W 08:20:35 10° S
ARIANE 5 R/B 3.8 08:09:57 10° S 08:13:09 41° SSW 08:13:09 41° SSW
NOSS 3-2 (A) 3.7 08:11:40 10° SSW 08:18:09 55° SE 08:18:26 54° SE
Gbstr 26 Del rocket 4.3 08:21:02 63° E 08:21:02 63° E 08:26:32 10° ESE
Cosmos 2218 Rocket 3.9 08:24:07 79° SSE 08:24:07 79° SSE 08:29:59 10° S
Terra 3.2 08:20:19 10° SSE 08:23:06 32° SE 08:23:06 32° SE
Spot 2 Rocket 4.1 08:21:04 10° S 08:25:28 54° SW 08:25:28 54° SW
Cosmos 1603 4.0 08:29:35 10° SSW 08:34:35 66° S 08:34:35 66° S
SL-8 Rocket 4.2 08:37:21 64° W 08:37:26 64° W 08:43:46 10° S
SPOT 5 3.6 08:35:54 10° S 08:40:09 57° S 08:40:09 57° S
Lacrosse 5 rocket 3.7 08:43:30 10° SW 08:45:00 21° SW 08:45:00 21° SW
Resurs 1-4 Rocket 4.2 08:52:44 17° ESE 08:53:24 17° ESE 08:56:43 10° SSE
SJ 16-02 3.2 08:55:50 29° S 08:55:50 29° S 08:58:05 10° SSE
SeaSat 1 4.5 08:54:32 10° S 08:58:25 23° SW 09:00:08 19° WSW
CZ-2D R/B 3.9 09:09:17 23° ESE 09:09:45 23° ESE 09:14:00 10° S
Cosmos 1943 4.2 09:12:11 10° SSW 09:16:02 40° WSW 09:16:02 40° WSW
NOSS 3-2 (C) 3.7 09:12:31 10° SW 09:18:05 64° SSW 09:18:05 64° SSW
NOSS 3-4 (A) 4.2 09:20:06 58° ENE 09:20:06 58° ENE 09:27:16 10° SE
NOSS 3-4 (C) 4.2 09:20:12 58° ENE 09:20:12 58° ENE 09:27:21 10° SE
Cosmos 1844 Rocket 3.9 09:30:01 34° ESE 09:30:01 34° ESE 09:33:32 10° SE
CENTAUR R/B 3.0 09:23:28 10° SW 09:27:33 46° SW 09:27:33 46° SW
Cosmos 1934 Rocket 4.2 09:33:43 66° SE 09:33:43 66° SE 09:39:23 10° SSE
CZ-4C R/B 4.1 09:34:31 29° E 09:34:31 29° E 09:39:37 10° SE
Cosmos 2263 Rocket 3.3 09:38:43 36° SW 09:38:45 36° SW 09:43:58 10° SSE
ATLAS 2AS CENTAUR R/B 3.1 09:40:59 45° ESE 09:40:59 45° ESE 09:45:32 10° SE
BREEZE-M DEB (TANK) 4.3 09:20:12 10° WSW 09:44:53 84° SSE 09:46:52 52° ENE
Cosmos 2123 Rocket 4.1 09:40:22 10° S 09:46:02 73° S 09:46:02 73° S
Terra 3.9 09:59:02 10° SSW 10:01:59 19° SW 10:01:59 19° SW
Lacrosse 4 Rocket 3.4 10:05:34 10° SSW 10:07:50 28° S 10:07:50 28° S
COSMOS 2455 4.4 10:11:21 24° E 10:11:21 24° E 10:15:16 10° SE
ATLAS 3B R/B 3.1 10:07:37 10° SSW 10:14:48 63° SE 10:16:50 45° ENE
ADEOS II 3.3 10:17:37 34° E 10:18:11 35° ESE 10:22:58 10° S
Cosmos 2082 Rocket 4.5 10:26:40 10° S 10:31:01 21° SE 10:35:18 10° E
Resurs 1-4 Rocket 2.6 10:33:49 54° SSW 10:33:49 54° SSW 10:37:57 10° SSW
Cosmos 2100 Rocket 4.3 10:35:13 56° E 10:35:25 57° E 10:41:32 10° SSE
CBERS-1 4.5 10:45:03 57° ESE 10:45:03 57° ESE 10:50:05 10° S
CZ-2D R/B 2.8 10:50:36 47° SW 10:50:36 47° SW 10:54:51 10° SSW
Cosmos 1459 Rocket 4.1 10:49:08 65° NE 10:49:40 68° E 10:56:06 10° SSE
NPP 4.1 10:52:07 53° SW 10:52:07 53° SW 10:56:29 10° SSW
Meteor 1-23 Rocket 4.3 10:47:17 10° SSW 10:52:41 73° SW 10:52:41 73° SW
ALOS 2 4.2 10:49:38 10° S 10:52:25 30° SSW 10:52:25 30° SSW
COSMOS 2406 3.6 10:48:24 10° SSW 10:54:09 60° ESE 10:55:18 50° ENE
Meteor 1-11 Rocket 4.2 10:56:10 51° WSW 10:56:10 51° WSW 11:01:40 10° S
Cosmos 2278 Rocket 2.7 10:59:27 49° ENE 10:59:28 49° ENE 11:04:59 10° SE
Cosmos 1743 4.4 11:02:01 33° S 11:02:01 33° S 11:04:18 10° S
IDEFIX/ARIANE 42P 4.1 10:58:30 21° ENE 11:01:01 32° ESE 11:05:39 10° S
Cosmos 2016 Rocket 4.3 11:03:07 52° NE 11:04:17 61° E 11:10:38 10° SSE
CZ-4B R/B 3.6 11:12:22 66° SSW 11:12:22 66° SSW 11:16:32 10° SSW
Cosmos 1844 Rocket 3.9 11:11:39 30° WSW 11:12:13 31° SW 11:17:13 10° S
Cosmos 1733 Rocket 4.3 11:13:57 36° SW 11:13:57 36° SW 11:17:07 10° S
USA 307 4.0 11:14:32 43° ESE 11:14:32 43° ESE 11:17:31 10° ESE
RESURS DK-1 3.6 11:17:17 38° SSW 11:17:17 38° SSW 11:20:15 10° SSE
Cosmos 1125 Rocket 3.8 11:17:02 58° SW 11:17:02 58° SW 11:22:02 10° SSE
Cosmos 1842 4.5 11:13:49 10° S 11:16:42 41° SSE 11:16:42 41° SSE
USA 308 3.8 11:19:11 48° ESE 11:19:11 48° ESE 11:22:24 10° SE
Cosmos 1378 Rocket 4.5 11:14:08 10° SSW 11:17:13 43° SSW 11:17:13 43° SSW
CZ-4C R/B 2.9 11:19:41 52° WNW 11:21:44 72° SW 11:28:43 10° SE
Cosmos 1908 Rocket 3.9 11:23:41 61° SSE 11:23:41 61° SSE 11:27:23 10° S
ASTEX 1 3.8 11:26:28 51° SW 11:26:28 51° SW 11:30:36 10° SSW
Cosmos 1782 Rocket 4.1 11:26:25 52° E 11:26:25 52° E 11:30:40 10° SSE
Cosmos 1802 Rocket 3.9 11:27:54 64° NW 11:28:53 77° W 11:35:16 10° S
Helios 1A 3.8 11:25:23 10° S 11:28:38 45° SSW 11:28:38 45° SSW
IRS-1D 4.0 11:30:52 47° WSW 11:30:52 47° WSW 11:35:00 10° SSW
ATLAS 2AS CENTAUR R/B 3.6 11:28:23 27° WSW 11:30:34 34° SW 11:36:19 10° SSE
Cosmos 1864 Rocket 4.5 11:29:15 56° N 11:30:43 81° E 11:37:08 10° S
APEX 3.8 11:34:02 70° SW 11:34:02 70° SW 11:38:17 10° SSE
Cosmos 1269 Rocket 3.9 11:33:05 10° SSW 11:38:28 79° WNW 11:38:49 75° NNW
Cosmos 1975 Rocket 3.3 11:36:57 10° S 11:41:25 64° E 11:41:54 59° ENE
Sich 1 Rocket 4.2 11:46:56 45° NE 11:47:44 51° E 11:52:08 10° SSE
SL-08 R/B 4.4 11:48:28 54° NNW 11:49:55 75° W 11:56:10 10° S
Cosmos 1725 Rocket 4.0 11:49:24 51° NNW 11:51:05 75° W 11:57:32 10° S
ARIANE 5 R/B 2.4 11:51:01 58° N 11:52:04 79° WNW 11:57:24 10° SSW
USA 215 3.2 11:46:01 10° SE 11:52:41 85° SW 11:55:08 43° WNW
Cosmos 1707 3.3 11:48:54 10° S 11:52:47 53° ESE 11:53:21 48° ENE
Cosmos 2061 Rocket 4.1 11:52:01 50° NW 11:53:22 62° W 11:59:37 10° S
Cosmos 1833 Rocket 2.6 11:48:35 10° SSW 11:54:12 63° WNW 11:55:02 56° NNW
SL-8 R/B 3.5 11:54:45 75° NNW 11:54:45 75° NNW 11:59:34 10° ENE
